Year,Month,Day,Hour,Minute,Value (Times are PST for temperature in C)
2013,04,22,00,00,5.40
2013,04,22,00,01,5.40
2013,04,22,00,02,5.40
2013,04,22,00,03,5.40
2013,04,22,00,04,5.30
2013,04,22,00,05,5.30
2013,04,22,00,06,5.30
2013,04,22,00,07,5.30
2013,04,22,00,08,5.30
2013,04,22,00,09,5.20
2013,04,22,00,10,5.20
2013,04,22,00,11,5.20
2013,04,22,00,12,5.20
2013,04,22,00,13,5.20
2013,04,22,00,14,5.20
2013,04,22,00,15,5.20
2013,04,22,00,16,5.20
2013,04,22,00,17,5.20
2013,04,22,00,18,5.20
2013,04,22,00,19,5.20
2013,04,22,00,20,5.20
2013,04,22,00,21,5.20
2013,04,22,00,22,5.20
2013,04,22,00,23,5.20
2013,04,22,00,24,5.20
2013,04,22,00,25,5.20
2013,04,22,00,26,5.20
2013,04,22,00,27,5.20
2013,04,22,00,28,5.20
2013,04,22,00,29,5.10
2013,04,22,00,30,5.10
2013,04,22,00,31,5.10
2013,04,22,00,32,5.10
2013,04,22,00,33,5.10
2013,04,22,00,34,5.10
2013,04,22,00,35,5.10
2013,04,22,00,36,5.10
2013,04,22,00,37,5.10
2013,04,22,00,38,5.10
2013,04,22,00,39,5.10
2013,04,22,00,40,5.10
2013,04,22,00,41,5.10
2013,04,22,00,42,5.10
2013,04,22,00,43,5.10
2013,04,22,00,44,5.10
2013,04,22,00,45,5.10
2013,04,22,00,46,5.10
2013,04,22,00,47,5.10
2013,04,22,00,48,5.10
2013,04,22,00,49,5.10
2013,04,22,00,50,5.10
2013,04,22,00,51,5.10
2013,04,22,00,52,5.10
2013,04,22,00,53,5.10
2013,04,22,00,54,5.10
2013,04,22,00,55,5.00
2013,04,22,00,56,5.00
2013,04,22,00,57,5.00
2013,04,22,00,58,5.10
2013,04,22,00,59,5.10
2013,04,22,01,00,5.00
2013,04,22,01,01,5.00
2013,04,22,01,02,5.00
2013,04,22,01,03,5.00
2013,04,22,01,04,5.00
2013,04,22,01,05,5.00
2013,04,22,01,06,5.00
2013,04,22,01,07,4.90
2013,04,22,01,08,4.90
2013,04,22,01,09,4.90
2013,04,22,01,10,4.90
2013,04,22,01,11,4.90
2013,04,22,01,12,4.90
2013,04,22,01,13,4.90
2013,04,22,01,14,4.80
2013,04,22,01,15,4.80
2013,04,22,01,16,4.80
2013,04,22,01,17,4.80
2013,04,22,01,18,4.80
2013,04,22,01,19,4.90
2013,04,22,01,20,4.90
2013,04,22,01,21,4.90
2013,04,22,01,22,4.90
2013,04,22,01,23,4.90
2013,04,22,01,24,4.90
2013,04,22,01,25,4.90
2013,04,22,01,26,4.90
2013,04,22,01,27,4.90
2013,04,22,01,28,4.90
2013,04,22,01,29,4.90
2013,04,22,01,30,4.90
2013,04,22,01,31,4.90
2013,04,22,01,32,4.90
2013,04,22,01,33,4.90
2013,04,22,01,34,4.90
2013,04,22,01,35,4.90
2013,04,22,01,36,4.90
2013,04,22,01,37,4.90
2013,04,22,01,38,4.90
2013,04,22,01,39,4.90
2013,04,22,01,40,4.90
2013,04,22,01,41,4.90
2013,04,22,01,42,4.90
2013,04,22,01,43,4.90
2013,04,22,01,44,4.90
2013,04,22,01,45,4.90
2013,04,22,01,46,4.90
2013,04,22,01,47,4.90
2013,04,22,01,48,4.80
2013,04,22,01,49,4.80
2013,04,22,01,50,4.80
2013,04,22,01,51,4.80
2013,04,22,01,52,4.80
2013,04,22,01,53,4.80
2013,04,22,01,54,4.80
2013,04,22,01,55,4.80
2013,04,22,01,56,4.80
2013,04,22,01,57,4.80
2013,04,22,01,58,4.70
2013,04,22,01,59,4.70
2013,04,22,02,00,4.70
2013,04,22,02,01,4.70
2013,04,22,02,02,4.70
2013,04,22,02,03,4.60
2013,04,22,02,04,4.60
2013,04,22,02,05,4.60
2013,04,22,02,06,4.60
2013,04,22,02,07,4.60
2013,04,22,02,08,4.60
2013,04,22,02,09,4.60
2013,04,22,02,10,4.60
2013,04,22,02,11,4.60
2013,04,22,02,12,4.60
2013,04,22,02,13,4.60
2013,04,22,02,14,4.60
2013,04,22,02,15,4.50
2013,04,22,02,16,4.50
2013,04,22,02,17,4.50
2013,04,22,02,18,4.50
2013,04,22,02,19,4.50
2013,04,22,02,20,4.50
2013,04,22,02,21,4.50
2013,04,22,02,22,4.50
2013,04,22,02,23,4.50
2013,04,22,02,24,4.50
2013,04,22,02,25,4.50
2013,04,22,02,26,4.50
2013,04,22,02,27,4.40
2013,04,22,02,28,4.40
2013,04,22,02,29,4.40
2013,04,22,02,30,4.40
2013,04,22,02,31,4.40
2013,04,22,02,32,4.40
2013,04,22,02,33,4.40
2013,04,22,02,34,4.40
2013,04,22,02,35,4.40
2013,04,22,02,36,4.40
2013,04,22,02,37,4.40
2013,04,22,02,38,4.40
2013,04,22,02,39,4.40
2013,04,22,02,40,4.40
2013,04,22,02,41,4.40
2013,04,22,02,42,4.30
2013,04,22,02,43,4.30
2013,04,22,02,44,4.30
2013,04,22,02,45,4.30
2013,04,22,02,46,4.30
2013,04,22,02,47,4.20
2013,04,22,02,48,4.20
2013,04,22,02,49,4.20
2013,04,22,02,50,4.20
2013,04,22,02,51,4.20
2013,04,22,02,52,4.10
2013,04,22,02,53,4.10
2013,04,22,02,54,4.10
2013,04,22,02,55,4.10
2013,04,22,02,56,4.10
2013,04,22,02,57,4.10
2013,04,22,02,58,4.00
2013,04,22,02,59,4.00
2013,04,22,03,00,4.00
2013,04,22,03,01,4.00
2013,04,22,03,02,4.00
2013,04,22,03,03,4.00
2013,04,22,03,04,4.00
2013,04,22,03,05,4.10
2013,04,22,03,06,4.10
2013,04,22,03,07,4.10
2013,04,22,03,08,4.10
2013,04,22,03,09,4.10
2013,04,22,03,10,4.10
2013,04,22,03,11,4.10
2013,04,22,03,12,4.10
2013,04,22,03,13,4.20
2013,04,22,03,14,4.20
2013,04,22,03,15,4.20
2013,04,22,03,16,4.10
2013,04,22,03,17,4.10
2013,04,22,03,18,4.10
2013,04,22,03,19,4.10
2013,04,22,03,20,4.00
2013,04,22,03,21,4.00
2013,04,22,03,22,4.00
2013,04,22,03,23,4.00
2013,04,22,03,24,3.90
2013,04,22,03,25,3.90
2013,04,22,03,26,3.90
2013,04,22,03,27,3.80
2013,04,22,03,28,3.80
2013,04,22,03,29,3.80
2013,04,22,03,30,3.80
2013,04,22,03,31,3.80
2013,04,22,03,32,3.70
2013,04,22,03,33,3.70
2013,04,22,03,34,3.70
2013,04,22,03,35,3.70
2013,04,22,03,36,3.70
2013,04,22,03,37,3.60
2013,04,22,03,38,3.60
2013,04,22,03,39,3.60
2013,04,22,03,40,3.60
2013,04,22,03,41,3.60
2013,04,22,03,42,3.50
2013,04,22,03,43,3.50
2013,04,22,03,44,3.50
2013,04,22,03,45,3.50
2013,04,22,03,46,3.40
2013,04,22,03,47,3.40
2013,04,22,03,48,3.50
2013,04,22,03,49,3.50
2013,04,22,03,50,3.50
2013,04,22,03,51,3.50
2013,04,22,03,52,3.50
2013,04,22,03,53,3.40
2013,04,22,03,54,3.40
2013,04,22,03,55,3.40
2013,04,22,03,56,3.40
2013,04,22,03,57,3.30
2013,04,22,03,58,3.30
2013,04,22,03,59,3.30
2013,04,22,04,00,3.30
2013,04,22,04,01,3.30
2013,04,22,04,02,3.30
2013,04,22,04,03,3.30
2013,04,22,04,04,3.30
2013,04,22,04,05,3.30
2013,04,22,04,06,3.30
2013,04,22,04,07,3.20
2013,04,22,04,08,3.20
2013,04,22,04,09,3.20
2013,04,22,04,10,3.20
2013,04,22,04,11,3.10
2013,04,22,04,12,3.10
2013,04,22,04,13,3.10
2013,04,22,04,14,3.10
2013,04,22,04,15,3.10
2013,04,22,04,16,3.10
2013,04,22,04,17,3.10
2013,04,22,04,18,3.10
2013,04,22,04,19,3.10
2013,04,22,04,20,3.00
2013,04,22,04,21,3.00
2013,04,22,04,22,3.00
2013,04,22,04,23,3.00
2013,04,22,04,24,3.10
2013,04,22,04,25,3.00
2013,04,22,04,26,3.00
2013,04,22,04,27,3.00
2013,04,22,04,28,3.00
2013,04,22,04,29,3.00
2013,04,22,04,30,3.10
2013,04,22,04,31,3.10
2013,04,22,04,32,3.10
2013,04,22,04,33,3.10
2013,04,22,04,34,3.10
2013,04,22,04,35,3.10
2013,04,22,04,36,3.10
2013,04,22,04,37,3.10
2013,04,22,04,38,3.10
2013,04,22,04,39,3.10
2013,04,22,04,40,3.10
2013,04,22,04,41,3.10
2013,04,22,04,42,3.10
2013,04,22,04,43,3.10
2013,04,22,04,44,3.10
2013,04,22,04,45,3.10
2013,04,22,04,46,3.10
2013,04,22,04,47,3.10
2013,04,22,04,48,3.10
2013,04,22,04,49,3.10
2013,04,22,04,50,3.10
2013,04,22,04,51,3.10
2013,04,22,04,52,3.10
2013,04,22,04,53,3.00
2013,04,22,04,54,3.00
2013,04,22,04,55,3.00
2013,04,22,04,56,3.00
2013,04,22,04,57,2.90
2013,04,22,04,58,2.90
2013,04,22,04,59,2.90
2013,04,22,05,00,2.90
2013,04,22,05,01,2.90
2013,04,22,05,02,2.80
2013,04,22,05,03,2.80
2013,04,22,05,04,2.80
2013,04,22,05,05,2.80
2013,04,22,05,06,2.80
2013,04,22,05,07,2.80
2013,04,22,05,08,2.70
2013,04,22,05,09,2.70
2013,04,22,05,10,2.70
2013,04,22,05,11,2.70
2013,04,22,05,12,2.70
2013,04,22,05,13,2.70
2013,04,22,05,14,2.60
2013,04,22,05,15,2.60
2013,04,22,05,16,2.60
2013,04,22,05,17,2.60
2013,04,22,05,18,2.60
2013,04,22,05,19,2.60
2013,04,22,05,20,2.60
2013,04,22,05,21,2.60
2013,04,22,05,22,2.60
2013,04,22,05,23,2.60
2013,04,22,05,24,2.60
2013,04,22,05,25,2.60
2013,04,22,05,26,2.60
2013,04,22,05,27,2.60
2013,04,22,05,28,2.60
2013,04,22,05,29,2.70
2013,04,22,05,30,2.70
2013,04,22,05,31,2.70
2013,04,22,05,32,2.70
2013,04,22,05,33,2.70
2013,04,22,05,34,2.60
2013,04,22,05,35,2.60
2013,04,22,05,36,2.60
2013,04,22,05,37,2.60
2013,04,22,05,38,2.60
2013,04,22,05,39,2.60
2013,04,22,05,40,2.60
2013,04,22,05,41,2.60
2013,04,22,05,42,2.60
2013,04,22,05,43,2.60
2013,04,22,05,44,2.50
2013,04,22,05,45,2.50
2013,04,22,05,46,2.50
2013,04,22,05,47,2.40
2013,04,22,05,48,2.40
2013,04,22,05,49,2.40
2013,04,22,05,50,2.40
2013,04,22,05,51,2.40
2013,04,22,05,52,2.40
2013,04,22,05,53,2.40
2013,04,22,05,54,2.40
2013,04,22,05,55,2.40
2013,04,22,05,56,2.40
2013,04,22,05,57,2.40
2013,04,22,05,58,2.40
2013,04,22,05,59,2.40
2013,04,22,06,00,2.40
2013,04,22,06,01,2.40
2013,04,22,06,02,2.40
2013,04,22,06,03,2.40
2013,04,22,06,04,2.40
2013,04,22,06,05,2.30
2013,04,22,06,06,2.30
2013,04,22,06,07,2.30
2013,04,22,06,08,2.30
2013,04,22,06,09,2.30
2013,04,22,06,10,2.30
2013,04,22,06,11,2.30
2013,04,22,06,12,2.30
2013,04,22,06,13,2.30
2013,04,22,06,14,2.30
2013,04,22,06,15,2.30
2013,04,22,06,16,2.20
2013,04,22,06,17,2.20
2013,04,22,06,18,2.20
2013,04,22,06,19,2.20
2013,04,22,06,20,2.20
2013,04,22,06,21,2.20
2013,04,22,06,22,2.20
2013,04,22,06,23,2.20
2013,04,22,06,24,2.20
2013,04,22,06,25,2.20
2013,04,22,06,26,2.20
2013,04,22,06,27,2.20
2013,04,22,06,28,2.20
2013,04,22,06,29,2.20
2013,04,22,06,30,2.20
2013,04,22,06,31,2.20
2013,04,22,06,32,2.20
2013,04,22,06,33,2.20
2013,04,22,06,34,2.20
2013,04,22,06,35,2.20
2013,04,22,06,36,2.20
2013,04,22,06,37,2.20
2013,04,22,06,38,2.20
2013,04,22,06,39,2.20
2013,04,22,06,40,2.20
2013,04,22,06,41,2.20
2013,04,22,06,42,2.20
2013,04,22,06,43,2.20
2013,04,22,06,44,2.20
2013,04,22,06,45,2.20
2013,04,22,06,46,2.20
2013,04,22,06,47,2.20
2013,04,22,06,48,2.20
2013,04,22,06,49,2.20
2013,04,22,06,50,2.20
2013,04,22,06,51,2.20
2013,04,22,06,52,2.20
2013,04,22,06,53,2.20
2013,04,22,06,54,2.20
2013,04,22,06,55,2.20
2013,04,22,06,56,2.30
2013,04,22,06,57,2.30
2013,04,22,06,58,2.30
2013,04,22,06,59,2.30
2013,04,22,07,00,2.30
2013,04,22,07,01,2.40
2013,04,22,07,02,2.40
2013,04,22,07,03,2.50
2013,04,22,07,04,2.50
2013,04,22,07,05,2.60
2013,04,22,07,06,2.60
2013,04,22,07,07,2.60
2013,04,22,07,08,2.70
2013,04,22,07,09,2.70
2013,04,22,07,10,2.70
2013,04,22,07,11,2.70
2013,04,22,07,12,2.80
2013,04,22,07,13,2.80
2013,04,22,07,14,2.80
2013,04,22,07,15,2.80
2013,04,22,07,16,2.80
2013,04,22,07,17,2.80
2013,04,22,07,18,2.80
2013,04,22,07,19,2.80
2013,04,22,07,20,2.80
2013,04,22,07,21,2.80
2013,04,22,07,22,2.90
2013,04,22,07,23,2.90
2013,04,22,07,24,3.00
2013,04,22,07,25,3.10
2013,04,22,07,26,3.10
2013,04,22,07,27,3.20
2013,04,22,07,28,3.20
2013,04,22,07,29,3.30
2013,04,22,07,30,3.30
2013,04,22,07,31,3.40
2013,04,22,07,32,3.40
2013,04,22,07,33,3.40
2013,04,22,07,34,3.40
2013,04,22,07,35,3.40
2013,04,22,07,36,3.40
2013,04,22,07,37,3.40
2013,04,22,07,38,3.40
2013,04,22,07,39,3.30
2013,04,22,07,40,3.30
2013,04,22,07,41,3.30
2013,04,22,07,42,3.30
2013,04,22,07,43,3.30
2013,04,22,07,44,3.30
2013,04,22,07,45,3.30
2013,04,22,07,46,3.30
2013,04,22,07,47,3.30
2013,04,22,07,48,3.40
2013,04,22,07,49,3.40
2013,04,22,07,50,3.40
2013,04,22,07,51,3.50
2013,04,22,07,52,3.50
2013,04,22,07,53,3.50
2013,04,22,07,54,3.60
2013,04,22,07,55,3.60
2013,04,22,07,56,3.60
2013,04,22,07,57,3.60
2013,04,22,07,58,3.60
2013,04,22,07,59,3.70
2013,04,22,08,00,3.70
2013,04,22,08,01,3.70
2013,04,22,08,02,3.80
2013,04,22,08,03,3.80
2013,04,22,08,04,3.90
2013,04,22,08,05,3.90
2013,04,22,08,06,4.00
2013,04,22,08,07,4.00
2013,04,22,08,08,4.10
2013,04,22,08,09,4.20
2013,04,22,08,10,4.20
2013,04,22,08,11,4.30
2013,04,22,08,12,4.30
2013,04,22,08,13,4.30
2013,04,22,08,14,4.40
2013,04,22,08,15,4.40
2013,04,22,08,16,4.50
2013,04,22,08,17,4.60
2013,04,22,08,18,4.60
2013,04,22,08,19,4.70
2013,04,22,08,20,4.70
2013,04,22,08,21,4.80
2013,04,22,08,22,4.80
2013,04,22,08,23,4.80
2013,04,22,08,24,4.90
2013,04,22,08,25,5.00
2013,04,22,08,26,5.00
2013,04,22,08,27,5.10
2013,04,22,08,28,5.10
2013,04,22,08,29,5.20
2013,04,22,08,30,5.20
2013,04,22,08,31,5.30
2013,04,22,08,32,5.30
2013,04,22,08,33,5.40
2013,04,22,08,34,5.50
2013,04,22,08,35,5.50
2013,04,22,08,36,5.60
2013,04,22,08,37,5.70
2013,04,22,08,38,5.80
2013,04,22,08,39,6.00
2013,04,22,08,40,6.20
2013,04,22,08,41,6.40
2013,04,22,08,42,6.60
2013,04,22,08,43,6.80
2013,04,22,08,44,6.80
2013,04,22,08,45,6.80
2013,04,22,08,46,6.80
2013,04,22,08,47,6.90
2013,04,22,08,48,6.90
2013,04,22,08,49,6.90
2013,04,22,08,50,6.90
2013,04,22,08,51,7.00
2013,04,22,08,52,7.10
2013,04,22,08,53,7.30
2013,04,22,08,54,7.40
2013,04,22,08,55,7.50
2013,04,22,08,56,7.50
2013,04,22,08,57,7.50
2013,04,22,08,58,7.60
2013,04,22,08,59,7.60
2013,04,22,09,00,7.60
2013,04,22,09,01,7.60
2013,04,22,09,02,7.70
2013,04,22,09,03,7.70
2013,04,22,09,04,7.80
2013,04,22,09,05,7.80
2013,04,22,09,06,7.90
2013,04,22,09,07,7.90
2013,04,22,09,08,7.90
2013,04,22,09,09,8.00
2013,04,22,09,10,8.00
2013,04,22,09,11,8.10
2013,04,22,09,12,8.10
2013,04,22,09,13,8.10
2013,04,22,09,14,8.10
2013,04,22,09,15,8.20
2013,04,22,09,16,8.20
2013,04,22,09,17,8.20
2013,04,22,09,18,8.20
2013,04,22,09,19,8.30
2013,04,22,09,20,8.30
2013,04,22,09,21,8.40
2013,04,22,09,22,8.40
2013,04,22,09,23,8.40
2013,04,22,09,24,8.50
2013,04,22,09,25,8.60
2013,04,22,09,26,8.60
2013,04,22,09,27,8.60
2013,04,22,09,28,8.70
2013,04,22,09,29,8.70
2013,04,22,09,30,8.70
2013,04,22,09,31,8.80
2013,04,22,09,32,8.80
2013,04,22,09,33,8.90
2013,04,22,09,34,9.00
2013,04,22,09,35,9.20
2013,04,22,09,36,9.30
2013,04,22,09,37,9.30
2013,04,22,09,38,9.30
2013,04,22,09,39,9.30
2013,04,22,09,40,9.30
2013,04,22,09,41,9.30
2013,04,22,09,42,9.30
2013,04,22,09,43,9.30
2013,04,22,09,44,9.30
2013,04,22,09,45,9.30
2013,04,22,09,46,9.40
2013,04,22,09,47,9.40
2013,04,22,09,48,9.40
2013,04,22,09,49,9.40
2013,04,22,09,50,9.40
2013,04,22,09,51,9.40
2013,04,22,09,52,9.40
2013,04,22,09,53,9.50
2013,04,22,09,54,9.50
2013,04,22,09,55,9.50
2013,04,22,09,56,9.50
2013,04,22,09,57,9.50
2013,04,22,09,58,9.60
2013,04,22,09,59,9.60
2013,04,22,10,00,9.70
2013,04,22,10,01,9.70
2013,04,22,10,02,9.70
2013,04,22,10,03,9.70
2013,04,22,10,04,9.80
2013,04,22,10,05,9.80
2013,04,22,10,06,9.80
2013,04,22,10,07,9.80
2013,04,22,10,08,9.80
2013,04,22,10,09,9.80
2013,04,22,10,10,9.90
2013,04,22,10,11,9.90
2013,04,22,10,12,10.00
2013,04,22,10,13,10.00
2013,04,22,10,14,10.00
2013,04,22,10,15,10.00
2013,04,22,10,16,10.00
2013,04,22,10,17,10.00
2013,04,22,10,18,10.00
2013,04,22,10,19,10.00
2013,04,22,10,20,10.00
2013,04,22,10,21,10.00
2013,04,22,10,22,10.10
2013,04,22,10,23,10.10
2013,04,22,10,24,10.10
2013,04,22,10,25,10.10
2013,04,22,10,26,10.10
2013,04,22,10,27,10.10
2013,04,22,10,28,10.20
2013,04,22,10,29,10.20
2013,04,22,10,30,10.20
2013,04,22,10,31,10.30
2013,04,22,10,32,10.30
2013,04,22,10,33,10.30
2013,04,22,10,34,10.30
2013,04,22,10,35,10.30
2013,04,22,10,36,10.30
2013,04,22,10,37,10.20
2013,04,22,10,38,10.20
2013,04,22,10,39,10.20
2013,04,22,10,40,10.20
2013,04,22,10,41,10.20
2013,04,22,10,42,10.10
2013,04,22,10,43,10.20
2013,04,22,10,44,10.20
2013,04,22,10,45,10.20
2013,04,22,10,46,10.30
2013,04,22,10,47,10.30
2013,04,22,10,48,10.30
2013,04,22,10,49,10.30
2013,04,22,10,50,10.30
2013,04,22,10,51,10.30
2013,04,22,10,52,10.40
2013,04,22,10,53,10.40
2013,04,22,10,54,10.40
2013,04,22,10,55,10.50
2013,04,22,10,56,10.60
2013,04,22,10,57,10.60
2013,04,22,10,58,10.70
2013,04,22,10,59,10.70
2013,04,22,11,00,10.70
2013,04,22,11,01,10.80
2013,04,22,11,02,10.80
2013,04,22,11,03,10.80
2013,04,22,11,04,10.80
2013,04,22,11,05,10.80
2013,04,22,11,06,11.00
2013,04,22,11,07,11.10
2013,04,22,11,08,11.20
2013,04,22,11,09,11.20
2013,04,22,11,10,11.30
2013,04,22,11,11,11.30
2013,04,22,11,12,11.30
2013,04,22,11,13,11.30
2013,04,22,11,14,11.30
2013,04,22,11,15,11.30
2013,04,22,11,16,11.40
2013,04,22,11,17,11.40
2013,04,22,11,18,11.40
2013,04,22,11,19,11.40
2013,04,22,11,20,11.40
2013,04,22,11,21,11.40
2013,04,22,11,22,11.30
2013,04,22,11,23,11.20
2013,04,22,11,24,11.10
2013,04,22,11,25,11.00
2013,04,22,11,26,10.90
2013,04,22,11,27,10.90
2013,04,22,11,28,10.80
2013,04,22,11,29,10.80
2013,04,22,11,30,10.90
2013,04,22,11,31,11.00
2013,04,22,11,32,11.00
2013,04,22,11,33,11.10
2013,04,22,11,34,11.10
2013,04,22,11,35,11.20
2013,04,22,11,36,11.30
2013,04,22,11,37,11.30
2013,04,22,11,38,11.30
2013,04,22,11,39,11.40
2013,04,22,11,40,11.40
2013,04,22,11,41,11.40
2013,04,22,11,42,11.30
2013,04,22,11,43,11.30
2013,04,22,11,44,11.30
2013,04,22,11,45,11.40
2013,04,22,11,46,11.40
2013,04,22,11,47,11.40
2013,04,22,11,48,11.40
2013,04,22,11,49,11.40
2013,04,22,11,50,11.40
2013,04,22,11,51,11.50
2013,04,22,11,52,11.40
2013,04,22,11,53,11.40
2013,04,22,11,54,11.40
2013,04,22,11,55,11.40
2013,04,22,11,56,11.40
2013,04,22,11,57,11.30
2013,04,22,11,58,11.30
2013,04,22,11,59,11.30
2013,04,22,12,00,11.30
2013,04,22,12,01,11.20
2013,04,22,12,02,11.20
2013,04,22,12,03,11.20
2013,04,22,12,04,11.20
2013,04,22,12,05,11.30
2013,04,22,12,06,11.30
2013,04,22,12,07,11.30
2013,04,22,12,08,11.20
2013,04,22,12,09,11.10
2013,04,22,12,10,10.90
2013,04,22,12,11,10.90
2013,04,22,12,12,10.90
2013,04,22,12,13,10.90
2013,04,22,12,14,10.90
2013,04,22,12,15,10.80
2013,04,22,12,16,10.80
2013,04,22,12,17,10.80
2013,04,22,12,18,10.80
2013,04,22,12,19,10.80
2013,04,22,12,20,10.80
2013,04,22,12,21,10.90
2013,04,22,12,22,11.00
2013,04,22,12,23,11.10
2013,04,22,12,24,11.20
2013,04,22,12,25,11.30
2013,04,22,12,26,11.50
2013,04,22,12,27,11.50
2013,04,22,12,28,11.60
2013,04,22,12,29,11.60
2013,04,22,12,30,11.50
2013,04,22,12,31,11.40
2013,04,22,12,32,11.30
2013,04,22,12,33,11.30
2013,04,22,12,34,11.40
2013,04,22,12,35,11.40
2013,04,22,12,36,11.30
2013,04,22,12,37,11.30
2013,04,22,12,38,11.30
2013,04,22,12,39,11.20
2013,04,22,12,40,11.10
2013,04,22,12,41,11.10
2013,04,22,12,42,11.10
2013,04,22,12,43,11.10
2013,04,22,12,44,11.10
2013,04,22,12,45,11.10
2013,04,22,12,46,11.10
2013,04,22,12,47,11.00
2013,04,22,12,48,10.90
2013,04,22,12,49,10.80
2013,04,22,12,50,10.80
2013,04,22,12,51,10.80
2013,04,22,12,52,10.60
2013,04,22,12,53,10.50
2013,04,22,12,54,10.40
2013,04,22,12,55,10.40
2013,04,22,12,56,10.40
2013,04,22,12,57,10.40
2013,04,22,12,58,10.30
2013,04,22,12,59,10.40
2013,04,22,13,00,10.40
2013,04,22,13,01,10.50
2013,04,22,13,02,10.50
2013,04,22,13,03,10.50
2013,04,22,13,04,10.40
2013,04,22,13,05,10.30
2013,04,22,13,06,10.20
2013,04,22,13,07,10.10
2013,04,22,13,08,10.10
2013,04,22,13,09,10.10
2013,04,22,13,10,10.10
2013,04,22,13,11,10.10
2013,04,22,13,12,10.20
2013,04,22,13,13,10.20
2013,04,22,13,14,10.30
2013,04,22,13,15,10.30
2013,04,22,13,16,10.30
2013,04,22,13,17,10.30
2013,04,22,13,18,10.30
2013,04,22,13,19,10.20
2013,04,22,13,20,10.20
2013,04,22,13,21,10.10
2013,04,22,13,22,10.10
2013,04,22,13,23,10.20
2013,04,22,13,24,10.20
2013,04,22,13,25,10.20
2013,04,22,13,26,10.20
2013,04,22,13,27,10.10
2013,04,22,13,28,10.10
2013,04,22,13,29,10.10
2013,04,22,13,30,10.10
2013,04,22,13,31,10.10
2013,04,22,13,32,10.10
2013,04,22,13,33,10.10
2013,04,22,13,34,10.10
2013,04,22,13,35,10.10
2013,04,22,13,36,10.00
2013,04,22,13,37,10.00
2013,04,22,13,38,10.00
2013,04,22,13,39,10.00
2013,04,22,13,40,10.10
2013,04,22,13,41,10.10
2013,04,22,13,42,10.20
2013,04,22,13,43,10.30
2013,04,22,13,44,10.30
2013,04,22,13,45,10.20
2013,04,22,13,46,10.20
2013,04,22,13,47,10.10
2013,04,22,13,48,10.10
2013,04,22,13,49,10.10
2013,04,22,13,50,10.10
2013,04,22,13,51,10.10
2013,04,22,13,52,10.00
2013,04,22,13,53,10.00
2013,04,22,13,54,10.10
2013,04,22,13,55,10.10
2013,04,22,13,56,10.10
2013,04,22,13,57,10.10
2013,04,22,13,58,10.10
2013,04,22,13,59,10.10
2013,04,22,14,00,10.20
2013,04,22,14,01,10.20
2013,04,22,14,02,10.20
2013,04,22,14,03,10.20
2013,04,22,14,04,10.20
2013,04,22,14,05,10.20
2013,04,22,14,06,10.30
2013,04,22,14,07,10.30
2013,04,22,14,08,10.40
2013,04,22,14,09,10.40
2013,04,22,14,10,10.40
2013,04,22,14,11,10.40
2013,04,22,14,12,10.40
2013,04,22,14,13,10.40
2013,04,22,14,14,10.40
2013,04,22,14,15,10.40
2013,04,22,14,16,10.40
2013,04,22,14,17,10.50
2013,04,22,14,18,10.50
2013,04,22,14,19,10.50
2013,04,22,14,20,10.50
2013,04,22,14,21,10.50
2013,04,22,14,22,10.60
2013,04,22,14,23,10.60
2013,04,22,14,24,10.60
2013,04,22,14,25,10.60
2013,04,22,14,26,10.60
2013,04,22,14,27,10.70
2013,04,22,14,28,10.70
2013,04,22,14,29,10.70
2013,04,22,14,30,10.70
2013,04,22,14,31,10.70
2013,04,22,14,32,10.70
2013,04,22,14,33,10.70
2013,04,22,14,34,10.80
2013,04,22,14,35,11.00
2013,04,22,14,36,11.10
2013,04,22,14,37,11.20
2013,04,22,14,38,11.30
2013,04,22,14,39,11.30
2013,04,22,14,40,11.30
2013,04,22,14,41,11.30
2013,04,22,14,42,11.30
2013,04,22,14,43,11.30
2013,04,22,14,44,11.30
2013,04,22,14,45,11.30
2013,04,22,14,46,11.40
2013,04,22,14,47,11.50
2013,04,22,14,48,11.50
2013,04,22,14,49,11.60
2013,04,22,14,50,11.60
2013,04,22,14,51,11.70
2013,04,22,14,52,11.70
2013,04,22,14,53,11.70
2013,04,22,14,54,11.80
2013,04,22,14,55,11.80
2013,04,22,14,56,11.80
2013,04,22,14,57,11.80
2013,04,22,14,58,11.90
2013,04,22,14,59,12.00
2013,04,22,15,00,12.00
2013,04,22,15,01,12.00
2013,04,22,15,02,11.90
2013,04,22,15,03,11.80
2013,04,22,15,04,11.70
2013,04,22,15,05,11.60
2013,04,22,15,06,11.70
2013,04,22,15,07,11.60
2013,04,22,15,08,11.50
2013,04,22,15,09,11.50
2013,04,22,15,10,11.50
2013,04,22,15,11,11.50
2013,04,22,15,12,11.50
2013,04,22,15,13,11.40
2013,04,22,15,14,11.50
2013,04,22,15,15,11.60
2013,04,22,15,16,11.70
2013,04,22,15,17,11.70
2013,04,22,15,18,11.70
2013,04,22,15,19,11.70
2013,04,22,15,20,11.80
2013,04,22,15,21,11.70
2013,04,22,15,22,11.70
2013,04,22,15,23,11.60
2013,04,22,15,24,11.70
2013,04,22,15,25,11.70
2013,04,22,15,26,11.70
2013,04,22,15,27,11.80
2013,04,22,15,28,11.90
2013,04,22,15,29,12.00
2013,04,22,15,30,12.00
2013,04,22,15,31,12.00
2013,04,22,15,32,12.00
2013,04,22,15,33,12.00
2013,04,22,15,34,12.10
2013,04,22,15,35,12.10
2013,04,22,15,36,12.10
2013,04,22,15,37,12.10
2013,04,22,15,38,12.00
2013,04,22,15,39,12.00
2013,04,22,15,40,12.10
2013,04,22,15,41,12.20
2013,04,22,15,42,12.20
2013,04,22,15,43,12.20
2013,04,22,15,44,12.30
2013,04,22,15,45,12.30
2013,04,22,15,46,12.40
2013,04,22,15,47,12.50
2013,04,22,15,48,12.60
2013,04,22,15,49,12.70
2013,04,22,15,50,12.70
2013,04,22,15,51,12.70
2013,04,22,15,52,12.70
2013,04,22,15,53,12.70
2013,04,22,15,54,12.70
2013,04,22,15,55,12.70
2013,04,22,15,56,12.60
2013,04,22,15,57,12.50
2013,04,22,15,58,12.50
2013,04,22,15,59,12.40
2013,04,22,16,00,12.40
2013,04,22,16,01,12.40
2013,04,22,16,02,12.40
2013,04,22,16,03,12.30
2013,04,22,16,04,12.20
2013,04,22,16,05,12.10
2013,04,22,16,06,12.00
2013,04,22,16,07,12.00
2013,04,22,16,08,12.00
2013,04,22,16,09,12.10
2013,04,22,16,10,12.10
2013,04,22,16,11,12.10
2013,04,22,16,12,12.20
2013,04,22,16,13,12.30
2013,04,22,16,14,12.30
2013,04,22,16,15,12.20
2013,04,22,16,16,12.10
2013,04,22,16,17,12.00
2013,04,22,16,18,11.90
2013,04,22,16,19,11.90
2013,04,22,16,20,11.90
2013,04,22,16,21,12.00
2013,04,22,16,22,12.10
2013,04,22,16,23,12.20
2013,04,22,16,24,12.20
2013,04,22,16,25,12.20
2013,04,22,16,26,12.20
2013,04,22,16,27,12.20
2013,04,22,16,28,12.30
2013,04,22,16,29,12.40
2013,04,22,16,30,12.40
2013,04,22,16,31,12.50
2013,04,22,16,32,12.50
2013,04,22,16,33,12.50
2013,04,22,16,34,12.50
2013,04,22,16,35,12.60
2013,04,22,16,36,12.70
2013,04,22,16,37,12.70
2013,04,22,16,38,12.80
2013,04,22,16,39,12.70
2013,04,22,16,40,12.70
2013,04,22,16,41,12.60
2013,04,22,16,42,12.60
2013,04,22,16,43,12.60
2013,04,22,16,44,12.60
2013,04,22,16,45,12.60
2013,04,22,16,46,12.60
2013,04,22,16,47,12.60
2013,04,22,16,48,12.50
2013,04,22,16,49,12.50
2013,04,22,16,50,12.40
2013,04,22,16,51,12.30
2013,04,22,16,52,12.30
2013,04,22,16,53,12.30
2013,04,22,16,54,12.30
2013,04,22,16,55,12.30
2013,04,22,16,56,12.30
2013,04,22,16,57,12.30
2013,04,22,16,58,12.30
2013,04,22,16,59,12.30
2013,04,22,17,00,12.30
2013,04,22,17,01,12.30
2013,04,22,17,02,12.30
2013,04,22,17,03,12.40
2013,04,22,17,04,12.40
2013,04,22,17,05,12.40
2013,04,22,17,06,12.40
2013,04,22,17,07,12.50
2013,04,22,17,08,12.50
2013,04,22,17,09,12.60
2013,04,22,17,10,12.60
2013,04,22,17,11,12.60
2013,04,22,17,12,12.70
2013,04,22,17,13,12.70
2013,04,22,17,14,12.70
2013,04,22,17,15,12.60
2013,04,22,17,16,12.50
2013,04,22,17,17,12.30
2013,04,22,17,18,12.20
2013,04,22,17,19,12.10
2013,04,22,17,20,12.00
2013,04,22,17,21,12.00
2013,04,22,17,22,12.00
2013,04,22,17,23,11.90
2013,04,22,17,24,11.90
2013,04,22,17,25,11.80
2013,04,22,17,26,11.80
2013,04,22,17,27,11.80
2013,04,22,17,28,11.70
2013,04,22,17,29,11.70
2013,04,22,17,30,11.70
2013,04,22,17,31,11.70
2013,04,22,17,32,11.70
2013,04,22,17,33,11.70
2013,04,22,17,34,11.70
2013,04,22,17,35,11.60
2013,04,22,17,36,11.60
2013,04,22,17,37,11.60
2013,04,22,17,38,11.60
2013,04,22,17,39,11.70
2013,04,22,17,40,11.70
2013,04,22,17,41,11.70
2013,04,22,17,42,11.70
2013,04,22,17,43,11.80
2013,04,22,17,44,11.80
2013,04,22,17,45,11.90
2013,04,22,17,46,11.90